Voltar ao catálogo

OPTSAT 3000

AtivoCiênciaSSO
NORAD 42900·PAYLOAD·🇮🇹 Italy

Lançado Aug 2, 2017 de Guiana Space Centre

Loading…

Próximas Passagens (próximas 24 horas)

TLE

ObsoletoSource: Mike McCants

Época: Aug 31, 2026, 20:30 UTC

1 42900U 17044A   26243.85443596 0.00005100  00000-0  22571-3 0    01
2 42900  97.3766 305.7096 0005143 131.7291 228.2707 15.21699209    04

Acompanhe OPTSAT 3000 em tempo real com AllMySat

Download on the App Store